• In Hungary
  • List of Countries
  • For 7 days
  • Water Temperature
  • Satellite Maps
  • Weather Map
  • News
  • Weather Widgets
  • user-avatar
    Login

    Hourly Weather Selegvozh

    Today, 23 May, Wednesday

    Time Temperature Precipitation Wind Pressure Humidity
    00:00 +11°C° 0 mm 3 mps 755 mmHg 40%
    01:00 +11°C° 0 mm 3 mps 754 mmHg 40%
    02:00 +12°C° 0 mm 4 mps 753 mmHg 41%
    03:00 +12°C° 0 mm 3 mps 753 mmHg 43%
    04:00 +13°C° 0 mm 3 mps 752 mmHg 47%
    05:00 +14°C° 0 mm 3 mps 751 mmHg 52%
    06:00 +16°C° 0 mm 3 mps 750 mmHg 56%
    07:00 +18°C° 0 mm 4 mps 750 mmHg 52%
    08:00 +20°C° 0 mm 4 mps 749 mmHg 47%
    09:00 +22°C° 0 mm 5 mps 748 mmHg 43%
    10:00 +23°C° 0 mm 5 mps 747 mmHg 39%
    11:00 +24°C° 0 mm 6 mps 747 mmHg 35%
    12:00 +26°C° 0 mm 6 mps 746 mmHg 31%
    13:00 +26°C° 0 mm 6 mps 746 mmHg 32%
    14:00 +26°C° 0 mm 5 mps 746 mmHg 33%
    15:00 +25°C° 0 mm 5 mps 745 mmHg 35%
    16:00 +22°C° 0.4 mm 5 mps 745 mmHg 45%
    17:00 +20°C° 0.4 mm 5 mps 746 mmHg 56%
    18:00 +17°C° 0.4 mm 5 mps 746 mmHg 66%
    19:00 +15°C° 0.6 mm 5 mps 746 mmHg 72%
    20:00 +13°C° 0.6 mm 5 mps 747 mmHg 78%
    21:00 +10°C° 0.6 mm 5 mps 747 mmHg 84%
    22:00 +8°C° 0 mm 5 mps 748 mmHg 81%
    23:00 +6°C° 0 mm 4 mps 749 mmHg 79%

    Tomorrow, 24 May, Thursday

    Time Temperature Precipitation Wind Pressure Humidity
    00:00 +5°C° 0 mm 4 mps 750 mmHg 77%
    01:00 +4°C° 0 mm 4 mps 750 mmHg 77%
    02:00 +4°C° 0 mm 3 mps 751 mmHg 78%
    03:00 +3°C° 0 mm 3 mps 752 mmHg 79%
    04:00 +4°C° 0 mm 3 mps 752 mmHg 76%
    05:00 +4°C° 0 mm 4 mps 753 mmHg 73%
    06:00 +4°C° 0 mm 4 mps 753 mmHg 71%
    07:00 +5°C° 0 mm 4 mps 753 mmHg 65%
    08:00 +6°C° 0 mm 4 mps 754 mmHg 58%
    09:00 +7°C° 0 mm 4 mps 754 mmHg 52%
    10:00 +7°C° 0 mm 4 mps 754 mmHg 50%
    11:00 +8°C° 0 mm 4 mps 754 mmHg 48%
    12:00 +8°C° 0 mm 4 mps 754 mmHg 46%
    13:00 +8°C° 0 mm 4 mps 755 mmHg 46%
    14:00 +8°C° 0 mm 4 mps 755 mmHg 45%
    15:00 +8°C° 0 mm 4 mps 755 mmHg 45%
    16:00 +7°C° 0 mm 4 mps 755 mmHg 45%
    17:00 +7°C° 0 mm 4 mps 755 mmHg 45%
    18:00 +7°C° 0 mm 4 mps 755 mmHg 45%
    19:00 +6°C° 0 mm 4 mps 755 mmHg 49%
    20:00 +5°C° 0 mm 3 mps 755 mmHg 52%
    21:00 +4°C° 0 mm 3 mps 755 mmHg 56%
    22:00 +4°C° 0 mm 2 mps 756 mmHg 59%
    23:00 +3°C° 0 mm 2 mps 756 mmHg 63%

    Day after tomorrow, 25 May, Friday

    Time Temperature Precipitation Wind Pressure Humidity
    00:00 +2°C° 0 mm 2 mps 756 mmHg 66%
    01:00 +2°C° 0 mm 2 mps 756 mmHg 69%
    02:00 +1°C° 0 mm 2 mps 757 mmHg 72%
    03:00 +1°C° 0 mm 2 mps 757 mmHg 74%
    04:00 +2°C° 0 mm 2 mps 757 mmHg 68%
    05:00 +3°C° 0 mm 2 mps 757 mmHg 62%
    06:00 +3°C° 0 mm 3 mps 757 mmHg 55%
    07:00 +4°C° 0 mm 3 mps 757 mmHg 51%
    08:00 +5°C° 0 mm 3 mps 757 mmHg 47%
    09:00 +7°C° 0 mm 3 mps 757 mmHg 42%
    10:00 +8°C° 0 mm 3 mps 757 mmHg 41%
    11:00 +9°C° 0 mm 3 mps 757 mmHg 40%
    12:00 +10°C° 0 mm 3 mps 757 mmHg 39%
    13:00 +11°C° 0 mm 3 mps 757 mmHg 40%
    14:00 +11°C° 0 mm 3 mps 757 mmHg 40%
    15:00 +12°C° 0 mm 3 mps 757 mmHg 41%
    16:00 +11°C° 0 mm 3 mps 757 mmHg 43%
    17:00 +11°C° 0 mm 3 mps 757 mmHg 46%
    18:00 +11°C° 0 mm 3 mps 757 mmHg 48%
    19:00 +10°C° 0 mm 3 mps 757 mmHg 55%
    20:00 +8°C° 0 mm 2 mps 757 mmHg 62%
    21:00 +8°C° 0 mm 1 mps 757 mmHg 68%
    22:00 +7°C° 0 mm 1 mps 757 mmHg 71%
    23:00 +6°C° 0 mm 2 mps 757 mmHg 73%

    26 May, Saturday

    Time Temperature Precipitation Wind Pressure Humidity
    00:00 +5°C° 0 mm 2 mps 757 mmHg 75%
    01:00 +5°C° 0 mm 2 mps 757 mmHg 76%
    02:00 +4°C° 0 mm 2 mps 757 mmHg 76%
    03:00 +4°C° 0 mm 2 mps 757 mmHg 77%
    04:00 +6°C° 0 mm 2 mps 757 mmHg 70%
    05:00 +8°C° 0 mm 2 mps 757 mmHg 63%
    06:00 +9°C° 0 mm 2 mps 756 mmHg 56%
    07:00 +13°C° 0 mm 2 mps 756 mmHg 49%
    08:00 +15°C° 0 mm 2 mps 755 mmHg 42%
    09:00 +17°C° 0 mm 2 mps 755 mmHg 36%
    10:00 +18°C° 0 mm 3 mps 754 mmHg 34%
    11:00 +19°C° 0 mm 3 mps 753 mmHg 32%
    12:00 +21°C° 0 mm 3 mps 753 mmHg 30%
    13:00 +22°C° 0 mm 3 mps 752 mmHg 30%
    14:00 +22°C° 0 mm 4 mps 752 mmHg 30%
    15:00 +23°C° 0 mm 4 mps 751 mmHg 31%
    16:00 +24°C° 0 mm 3 mps 750 mmHg 33%
    17:00 +22°C° 0 mm 3 mps 750 mmHg 35%
    18:00 +23°C° 0 mm 2 mps 749 mmHg 37%
    19:00 +20°C° 0 mm 2 mps 749 mmHg 41%
    20:00 +18°C° 0 mm 2 mps 749 mmHg 46%
    21:00 +16°C° 0 mm 2 mps 749 mmHg 50%
    22:00 +14°C° 0 mm 2 mps 748 mmHg 54%
    23:00 +13°C° 0 mm 2 mps 748 mmHg 58%

    27 May, Sunday

    Time Temperature Precipitation Wind Pressure Humidity
    00:00 +10°C° 0 mm 2 mps 748 mmHg 62%
    01:00 +10°C° 0.3 mm 2 mps 748 mmHg 68%
    02:00 +9°C° 0.3 mm 2 mps 748 mmHg 73%
    03:00 +8°C° 0.3 mm 2 mps 748 mmHg 78%
    04:00 +8°C° 0.2 mm 2 mps 748 mmHg 76%
    05:00 +8°C° 0.2 mm 3 mps 748 mmHg 74%
    06:00 +9°C° 0.2 mm 3 mps 748 mmHg 72%
    07:00 +8°C° 0 mm 4 mps 748 mmHg 62%
    08:00 +9°C° 0 mm 5 mps 748 mmHg 51%
    09:00 +10°C° 0 mm 6 mps 749 mmHg 41%
    10:00 +10°C° 0 mm 6 mps 749 mmHg 40%
    11:00 +9°C° 0 mm 6 mps 749 mmHg 40%
    12:00 +9°C° 0 mm 6 mps 749 mmHg 39%
    13:00 +9°C° 0 mm 6 mps 749 mmHg 39%
    14:00 +9°C° 0 mm 6 mps 750 mmHg 39%
    15:00 +9°C° 0 mm 6 mps 750 mmHg 39%
    16:00 +8°C° 0 mm 6 mps 750 mmHg 41%
    17:00 +8°C° 0 mm 6 mps 751 mmHg 42%
    18:00 +8°C° 0 mm 6 mps 751 mmHg 44%
    19:00 +6°C° 0.1 mm 5 mps 751 mmHg 48%
    20:00 +5°C° 0.1 mm 5 mps 751 mmHg 52%
    21:00 +3°C° 0.1 mm 5 mps 751 mmHg 55%
    22:00 +2°C° 0 mm 5 mps 752 mmHg 57%
    23:00 +3°C° 0 mm 4 mps 752 mmHg 59%

    28 May, Monday

    Time Temperature Precipitation Wind Pressure Humidity
    00:00 +1°C° 0 mm 4 mps 752 mmHg 61%
    01:00 0°C° 0 mm 4 mps 752 mmHg 63%
    02:00 0°C° 0 mm 4 mps 752 mmHg 65%
    03:00 -1°C° 0 mm 4 mps 753 mmHg 67%
    04:00 0°C° 0 mm 4 mps 752 mmHg 63%
    05:00 +1°C° 0 mm 5 mps 752 mmHg 60%
    06:00 +2°C° 0 mm 5 mps 752 mmHg 56%
    07:00 +2°C° 0 mm 5 mps 752 mmHg 54%
    08:00 +3°C° 0 mm 5 mps 751 mmHg 52%
    09:00 +5°C° 0 mm 5 mps 751 mmHg 50%
    10:00 +5°C° 0 mm 4 mps 750 mmHg 52%
    11:00 +5°C° 0 mm 4 mps 750 mmHg 54%
    12:00 +6°C° 0 mm 4 mps 749 mmHg 57%
    13:00 +7°C° 0.4 mm 3 mps 748 mmHg 62%
    14:00 +7°C° 0.4 mm 3 mps 748 mmHg 67%
    15:00 +7°C° 0.4 mm 2 mps 747 mmHg 72%
    16:00 +6°C° 0.3 mm 2 mps 747 mmHg 73%
    17:00 +5°C° 0.3 mm 3 mps 746 mmHg 74%
    18:00 +5°C° 0.3 mm 3 mps 746 mmHg 75%
    19:00 +4°C° 0.1 mm 3 mps 747 mmHg 75%
    20:00 +3°C° 0.1 mm 3 mps 747 mmHg 76%
    21:00 +2°C° 0.1 mm 3 mps 747 mmHg 77%
    22:00 +1°C° 0 mm 3 mps 748 mmHg 77%
    23:00 +1°C° 0 mm 3 mps 748 mmHg 78%
    Show more